Weather History for Edinburgh Airport, United Kingdom

Change the Weather History Date:

Sunday, October 6, 2013

  Actual Average Record
Temperature  
Mean Temperature 58 °F -  
Max Temperature 62 °F 54 °F - ()
Min Temperature 55 °F 42 °F - ()
Degree Days  
Heating Degree Days 6    
Growing Degree Days 8 (Base 50)    
Moisture  
Dew Point 55 °F    
Average Humidity 86    
Maximum Humidity 94    
Minimum Humidity 72    
Precipitation  
Precipitation 0.00 in 0.08 in - ()
Sea Level Pressure  
Sea Level Pressure 30.06 in    
Wind  
Wind Speed 11 mph ()    
Max Wind Speed 18 mph    
Max Gust Speed -    
Visibility 6.2 miles    
Events Rain    
T = Trace of Precipitation, MM = Missing Value Source: Averaged Metar Reports

Daily Weather History Graph

Daily Weather History Graph

Search for Another Location

Airport:

Trip Planner

Search our weather history database for the weather conditions in past years. The results will help you decide how hot, cold, wet, or windy it might be!

Date:

Astronomy

Oct. 06, 2013 Rise Set
Actual Time 7:26 AM BST 6:35 PM BST
Civil Twilight 6:49 AM BST 7:12 PM BST
Nautical Twilight 6:06 AM BST 7:55 PM BST
Astronomical Twilight 5:22 AM BST 8:39 PM BST
Moon 9:17 AM BST (10/6) 6:58 PM BST (10/6)
Length of Visible Light 12h 23m
Length of Day
11h 08m
New Moon, 2% of the Moon is Illuminated
Oct 6
New Moon
Oct 12
First Quarter
Oct 19
Full
Oct 27
Last Quarter
Nov 3
New

Hourly Weather History & Observations

Time (BST) Temp. Dew Point Humidity Pressure Visibility Wind Dir Wind Speed Gust Speed Precip Events Conditions
12:20 AM 55.4 °F 51.8 °F 88% 30.06 in - WSW 11.5 mph - N/A   Clear
12:50 AM 55.4 °F 51.8 °F 88% 30.06 in - SW 11.5 mph - N/A   Clear
1:20 AM 55.4 °F 51.8 °F 88% 30.04 in - WSW 12.7 mph - N/A   Clear
1:50 AM 55.4 °F 51.8 °F 88% 30.04 in - WSW 11.5 mph - N/A   Clear
2:20 AM 57.2 °F 51.8 °F 82% 30.04 in - SW 15.0 mph - N/A   Clear
2:50 AM 57.2 °F 51.8 °F 82% 30.04 in - SW 13.8 mph - N/A   Clear
3:20 AM 59.0 °F 51.8 °F 77% 30.04 in 6.2 mi SW 15.0 mph - N/A   Mostly Cloudy
3:50 AM 59.0 °F 51.8 °F 77% 30.04 in 6.2 mi SW 18.4 mph - N/A   Overcast
4:20 AM 60.8 °F 51.8 °F 72% 30.04 in 6.2 mi SW 17.3 mph - N/A   Mostly Cloudy
4:50 AM 59.0 °F 51.8 °F 77% 30.01 in - SW 13.8 mph - N/A   Clear
5:20 AM 59.0 °F 51.8 °F 77% 30.04 in 6.2 mi SW 12.7 mph - N/A   Partly Cloudy
5:50 AM 59.0 °F 51.8 °F 77% 30.04 in 6.2 mi SW 13.8 mph - N/A   Partly Cloudy
6:20 AM 59.0 °F 53.6 °F 82% 30.04 in 6.2 mi WSW 17.3 mph - N/A   Mostly Cloudy
6:50 AM 57.2 °F 55.4 °F 94% 30.04 in 6.2 mi SW 13.8 mph - N/A Rain Light Rain
7:20 AM 57.2 °F 55.4 °F 94% 30.04 in 6.2 mi SW 11.5 mph - N/A   Mostly Cloudy
7:50 AM 57.2 °F 55.4 °F 94% 30.04 in 6.2 mi SW 10.4 mph - N/A   Mostly Cloudy
8:20 AM 59.0 °F 55.4 °F 88% 30.06 in 6.2 mi WSW 13.8 mph - N/A   Mostly Cloudy
8:50 AM 59.0 °F 55.4 °F 88% 30.06 in 6.2 mi SW 15.0 mph - N/A   Mostly Cloudy
9:20 AM 59.0 °F 55.4 °F 88% 30.06 in 6.2 mi SW 11.5 mph - N/A   Overcast
9:50 AM 59.0 °F 55.4 °F 88% 30.06 in 6.2 mi SSW 11.5 mph - N/A   Scattered Clouds
10:20 AM 59.0 °F 55.4 °F 88% 30.06 in 6.2 mi SW 11.5 mph - N/A   Mostly Cloudy
10:50 AM 59.0 °F 55.4 °F 88% 30.09 in 6.2 mi SW 13.8 mph - N/A   Overcast
11:20 AM 59.0 °F 55.4 °F 88% 30.09 in 6.2 mi SW 12.7 mph - N/A   Overcast
11:50 AM 60.8 °F 55.4 °F 82% 30.09 in 6.2 mi WSW 10.4 mph - N/A   Mostly Cloudy
12:20 PM 60.8 °F 57.2 °F 88% 30.09 in 6.2 mi WSW 10.4 mph - N/A   Overcast
12:50 PM 60.8 °F 57.2 °F 88% 30.09 in 6.2 mi WSW 9.2 mph - N/A   Mostly Cloudy
1:20 PM 59.0 °F 57.2 °F 94% 30.09 in 6.2 mi SW 11.5 mph - N/A Rain Light Rain
1:50 PM 60.8 °F 57.2 °F 88% 30.06 in 6.2 mi SW 11.5 mph - N/A Rain Light Rain
2:20 PM 60.8 °F 57.2 °F 88% 30.06 in 6.2 mi SW 10.4 mph - N/A   Mostly Cloudy
2:50 PM 60.8 °F 59.0 °F 94% 30.06 in 6.2 mi WSW 10.4 mph - N/A   Overcast
3:20 PM 60.8 °F 59.0 °F 94% 30.06 in 6.2 mi SW 11.5 mph - N/A   Overcast
3:50 PM 60.8 °F 57.2 °F 88% 30.06 in 6.2 mi WSW 12.7 mph - N/A   Overcast
4:20 PM 62.6 °F 59.0 °F 88% 30.06 in 6.2 mi WSW 11.5 mph - N/A   Mostly Cloudy
4:50 PM 62.6 °F 57.2 °F 82% 30.06 in 6.2 mi WSW 9.2 mph - N/A   Scattered Clouds
5:20 PM 62.6 °F 57.2 °F 82% 30.06 in 6.2 mi WSW 9.2 mph - N/A   Mostly Cloudy
5:50 PM 62.6 °F 55.4 °F 77% 30.06 in 6.2 mi SW 11.5 mph - N/A   Scattered Clouds
6:20 PM 60.8 °F 55.4 °F 82% 30.06 in 6.2 mi SW 9.2 mph - N/A   Scattered Clouds
6:50 PM 60.8 °F 55.4 °F 82% 30.06 in 6.2 mi SW 8.1 mph - N/A   Scattered Clouds
7:20 PM 60.8 °F 55.4 °F 82% 30.06 in 6.2 mi SW 10.4 mph - N/A   Scattered Clouds
7:50 PM 60.8 °F 55.4 °F 82% 30.06 in 6.2 mi SW 12.7 mph - N/A   Partly Cloudy
8:20 PM 59.0 °F 55.4 °F 88% 30.06 in - WSW 10.4 mph - N/A   Clear
8:50 PM 59.0 °F 55.4 °F 88% 30.06 in - West 6.9 mph - N/A   Clear
9:20 PM 59.0 °F 57.2 °F 94% 30.06 in - WSW 9.2 mph - N/A   Clear
9:50 PM 59.0 °F 55.4 °F 88% 30.09 in 6.2 mi WSW 8.1 mph - N/A   Mostly Cloudy
10:20 PM 59.0 °F 57.2 °F 94% 30.06 in 6.2 mi SW 10.4 mph - N/A   Scattered Clouds
10:50 PM 59.0 °F 57.2 °F 94% 30.06 in 6.2 mi WSW 10.4 mph - N/A   Scattered Clouds
11:20 PM 60.8 °F 59.0 °F 94% 30.06 in 6.2 mi WSW 11.5 mph - N/A   Mostly Cloudy
11:50 PM 59.0 °F 57.2 °F 94% 30.06 in 6.2 mi WSW 11.5 mph - N/A   Scattered Clouds